[[{"header":{"parameterUnit":"m.s-1","parameterCategory":1,"la1":30.2991,"la2":30.254,"lo1":-89.0895,"lo2":-89.0444,"dy":0.0017,"dx":0.0017,"nx":28,"ny":28,"refTime":"2024-05-01T21:00:00:Z","depth":0,"parameterNumber":2,"parameterNumberName":"U-component_of_WINDS"},"data":[0,0,0,0,0,0,0,0,0,0,0,0,0,0,0,0,0,0,0,0,0,0,0,0,0,0,0,0,0,0,0,0,0,0,0,0,0,0,0,0,0,0,0,0,0,0,0,0,0,0,0,0,0,0,0,0,0,0,-3.7455,-3.7455,0,-3.7394,-3.7393,-3.7393,-3.729,-3.7289,-3.7287,-3.7285,-3.7221,-3.7221,-3.7221,0,0,0,0,0,0,0,0,0,0,0,0,0,-3.7485,-3.7485,-3.7455,-3.7454,-3.7454,-3.7394,-3.7393,-3.7393,-3.7291,-3.7289,-3.7286,-3.7284,-3.7221,-3.7221,-3.7221,0,0,0,0,0,0,0,0,0,0,0,0,0,-3.7453,-3.7485,-3.7455,-3.7396,-3.739,-3.7394,-3.7393,-3.7392,-3.7291,-3.7288,-3.7286,-3.7283,-3.7221,-3.7221,-3.7221,-3.7279,0,0,-3.7222,-3.7222,0,0,0,0,0,0,0,0,-3.7455,-3.7452,-3.7405,-3.74,-3.7393,-3.7347,-3.738,-3.7354,-3.7292,-3.7329,-3.7285,-3.7282,-3.7265,-3.7262,-3.7256,-3.7276,-3.7273,-3.7222,-3.7222,-3.7222,-3.7222,0,0,0,0,0,0,0,-3.7457,-3.7454,-3.7431,-3.7405,-3.7397,-3.7373,-3.7365,-3.7375,-3.7314,-3.7325,-3.7318,-3.7312,-3.7261,-3.7256,-3.7254,-3.7272,-3.7222,-3.7222,-3.7222,-3.7222,-3.7338,-3.734,0,0,0,0,0,0,-3.7468,-3.7457,-3.7433,-3.7429,-3.7418,-3.7374,-3.7366,-3.7365,-3.7313,-3.7303,-3.7314,-3.7307,-3.7258,-3.7254,-3.7251,-3.7315,-3.7222,-3.7222,-3.7222,-3.7335,-3.7338,-3.7341,0,0,0,0,0,0,-3.7469,-3.7467,-3.7435,-3.7441,-3.7435,-3.7377,-3.7377,-3.7365,-3.736,-3.7305,-3.7294,-3.732,-3.7255,-3.7251,-3.7273,-3.7311,-3.7222,-3.7222,-3.7331,-3.7336,-3.734,-3.7444,0,0,0,0,0,0,-3.7471,-3.7468,-3.7489,-3.7442,-3.7435,-3.7458,-3.7379,-3.7366,-3.736,-3.7351,-3.7308,-3.7298,-3.7253,-3.7274,-3.7273,-3.731,-3.7222,-3.7327,-3.7333,-3.7338,-3.7436,-3.7451,-3.7464,0,0,0,0,0,-3.7472,-3.7519,-3.749,-3.7488,-3.7459,-3.746,-3.7456,-3.7404,-3.7364,-3.7384,-3.735,-3.7299,-3.7309,-3.7277,-3.7275,-3.7313,-3.7324,-3.7331,-3.7338,-3.743,-3.7448,-3.7463,0,0,0,0,0,0,-3.757,-3.7512,-3.7479,-3.7513,-3.7493,-3.7443,-3.7466,-3.7424,-3.7414,-3.7405,-3.7341,-3.7332,-3.7362,-3.734,-3.7306,-3.7367,-3.7309,-3.7316,-3.7379,-3.7396,-3.7409,-3.7413,-3.7222,0,0,0,0,0,-3.7597,-3.7602,-3.7551,-3.7586,-3.7578,-3.7525,-3.7523,-3.7485,-3.7461,-3.7451,-3.7418,-3.7397,-3.7395,-3.7395,-3.739,-3.7434,-3.7424,-3.746,-3.7474,-3.7485,-3.7491,-3.7514,-3.7529,-3.7364,-3.7364,-3.7364,0,0,-3.7649,-3.7618,-3.7625,-3.7605,-3.7584,-3.7592,-3.7518,-3.7528,-3.7533,-3.7453,-3.7471,-3.7447,-3.7419,-3.7453,-3.7466,-3.7435,-3.7535,-3.7494,-3.7503,-3.7502,-3.7522,-3.7538,-3.7552,-3.7368,-3.7368,-3.7367,0,0,-3.7749,-3.7727,-3.7753,-3.7735,-3.7706,-3.7672,-3.7679,-3.7637,-3.7618,-3.7636,-3.7576,-3.7582,-3.758,-3.7563,-3.7554,-3.7653,-3.7606,-3.7654,-3.7723,-3.7747,-3.776,-3.7771,-3.7805,-3.7818,-3.766,-3.7661,-3.7661,0,-3.7817,-3.7826,-3.7772,-3.7787,-3.778,-3.7711,-3.7738,-3.7723,-3.7694,-3.7691,-3.7658,-3.7656,-3.7632,-3.7661,-3.7686,-3.7682,-3.7688,-3.7656,-3.7762,-3.7773,-3.7782,-3.7815,-3.7828,-3.7666,-3.7666,-3.7665,-3.7665,0,-3.7912,-3.792,-3.7945,-3.792,-3.7916,-3.7938,-3.7888,-3.7891,-3.7855,-3.7825,-3.7845,-3.7815,-3.7804,-3.7809,-3.7773,-3.7834,-3.7816,-3.7774,-3.7713,-3.7805,-3.7834,-3.7846,-3.7675,-3.7673,-3.7671,-3.767,0,0,-3.8067,-3.8015,-3.8025,-3.8014,-3.7979,-3.7984,-3.8003,-3.7993,-3.7997,-3.7982,-3.7996,-3.7998,-3.796,-3.795,-3.7913,-3.7934,-3.8014,-3.7889,-3.7887,-3.7912,-3.8079,-3.8109,-3.8124,-3.7985,-3.7987,-3.7988,-3.8081,0,-3.8157,-3.8186,-3.814,-3.818,-3.8187,-3.8123,-3.814,-3.8122,-3.8095,-3.8097,-3.8068,-3.807,-3.802,-3.8014,-3.8032,-3.8,-3.8046,-3.7993,-3.7996,-3.7997,-3.8002,-3.8139,-3.817,-3.8259,-3.8092,-3.8094,-3.8095,0,-3.8265,-3.8256,-3.8297,-3.8262,-3.8263,-3.8279,-3.8267,-3.827,-3.8249,-3.8228,-3.822,-3.8177,-3.8194,-3.814,-3.8163,-3.8128,-3.8128,-3.8113,-3.8115,-3.8111,-3.8049,-3.8137,-3.8286,-3.8298,-3.8113,-3.8112,-3.811,0,-3.8372,-3.837,-3.8395,-3.8387,-3.8347,-3.836,-3.8345,-3.832,-3.8318,-3.8309,-3.8307,-3.8301,-3.8296,-3.8292,-3.8249,-3.8213,-3.8278,-3.8219,-3.8261,-3.8262,-3.8274,-3.8273,-3.8423,-3.8279,-3.8278,-3.8278,-3.8278,0,-3.8476,-3.8503,-3.8442,-3.8457,-3.8486,-3.8435,-3.8466,-3.8444,-3.8424,-3.8434,-3.838,-3.839,-3.8334,-3.8339,-3.8305,-3.833,-3.8329,-3.8312,-3.8303,-3.8316,-3.8317,-3.8312,-3.8303,-3.8282,-3.8281,-3.828,-3.8279,0,-3.8599,-3.8559,-3.8581,-3.8544,-3.8535,-3.8558,-3.8526,-3.8538,-3.851,-3.8524,-3.8524,-3.848,-3.8483,-3.8441,-3.8435,-3.8413,-3.8452,-3.8433,-3.846,-3.8452,-3.8496,-3.8492,-3.8644,-3.8662,-3.8509,-3.8511,-3.8512,0,-3.8666,-3.8685,-3.8651,-3.8654,-3.8641,-3.8647,-3.8645,-3.8597,-3.8598,-3.8577,-3.8593,-3.8592,-3.8588,-3.8597,-3.8564,-3.8561,-3.854,-3.8594,-3.8538,-3.8552,-3.8539,-3.8537,-3.8539,-3.8604,-3.8606,-3.8608,-3.8609,0,-3.8789,-3.877,-3.8769,-3.8763,-3.8763,-3.8756,-3.8745,-3.8751,-3.8699,-3.8703,-3.8706,-3.8704,-3.8701,-3.87,-3.8692,-3.8676,-3.8634,-3.8628,-3.8637,-3.8648,-3.8662,-3.8654,-3.8488,-3.8623,-3.8622,-3.8621,-3.862,-3.8619,-3.8885,-3.89,-3.8878,-3.888,-3.8868,-3.886,-3.887,-3.8845,-3.8847,-3.884,-3.8813,-3.8822,-3.8803,-3.8786,-3.8775,-3.8782,-3.8755,-3.8769,-3.8771,-3.8775,-3.8782,-3.8665,-3.878,-3.878,-3.8779,-3.8779,-3.8779,0,-3.9004,-3.8988,-3.8991,-3.8978,-3.8981,-3.8944,-3.8931,-3.8935,-3.8944,-3.893,-3.8929,-3.8934,-3.8935,-3.8905,-3.8902,-3.8913,-3.8894,-3.8914,-3.8911,-3.8908,-3.8807,-3.8798,-3.8929,-3.8929,-3.8929,-3.8929,-3.8929,-3.8929,-3.9066,-3.9089,-3.9068,-3.9086,-3.907,-3.9078,-3.9074,-3.9067,-3.9056,-3.9064,-3.9065,-3.9046,-3.9026,-3.9022,-3.9022,-3.9013,-3.9014,-3.904,-3.9025,-3.893,-3.8915,-3.8901,-3.8892,-3.9041,-3.9041,-3.9125,-3.9126,-3.9126]},{"header":{"parameterUnit":"m.s-1","parameterCategory":1,"la1":30.2991,"la2":30.254,"lo1":-89.0895,"lo2":-89.0444,"dy":0.0017,"dx":0.0017,"nx":28,"ny":28,"refTime":"2024-05-01T21:00:00:Z","depth":0,"parameterNumber":3,"parameterNumberName":"V-component_of_WINDS"},"data":[0,0,0,0,0,0,0,0,0,0,0,0,0,0,0,0,0,0,0,0,0,0,0,0,0,0,0,0,0,0,0,0,0,0,0,0,0,0,0,0,0,0,0,0,0,0,0,0,0,0,0,0,0,0,0,0,0,0,2.3216,2.3217,0,2.3272,2.3272,2.3273,2.3316,2.3316,2.3317,2.3317,2.3371,2.3372,2.3373,0,0,0,0,0,0,0,0,0,0,0,0,0,2.3146,2.3147,2.3216,2.3217,2.3217,2.3272,2.3272,2.3273,2.3316,2.3317,2.3317,2.3317,2.3371,2.3372,2.3374,0,0,0,0,0,0,0,0,0,0,0,0,0,2.3186,2.3147,2.3216,2.3245,2.3249,2.3271,2.3272,2.3273,2.3316,2.3317,2.3317,2.3318,2.3371,2.3372,2.3374,2.3371,0,0,2.3379,2.3379,0,0,0,0,0,0,0,0,2.3184,2.3189,2.324,2.3243,2.3247,2.3288,2.3267,2.3306,2.3316,2.329,2.3317,2.3318,2.3343,2.3347,2.3356,2.3373,2.3376,2.3379,2.338,2.338,2.3381,0,0,0,0,0,0,0,2.3181,2.3187,2.3238,2.3241,2.3245,2.3256,2.3262,2.3275,2.3312,2.3293,2.3296,2.3302,2.3345,2.3354,2.3357,2.3376,2.3379,2.338,2.3381,2.3382,2.3397,2.3396,0,0,0,0,0,0,2.3174,2.3184,2.3236,2.324,2.3216,2.3256,2.3263,2.3274,2.3312,2.3319,2.3301,2.3304,2.3351,2.3355,2.3359,2.336,2.338,2.3382,2.3383,2.3397,2.3397,2.3396,0,0,0,0,0,0,2.3172,2.3178,2.3234,2.3213,2.3221,2.3257,2.3268,2.3275,2.3284,2.3319,2.3326,2.3304,2.3352,2.3357,2.3368,2.3363,2.3383,2.3384,2.3398,2.3397,2.3396,2.3361,0,0,0,0,0,0,2.317,2.3177,2.3177,2.3212,2.3222,2.3242,2.3268,2.3275,2.3287,2.3291,2.3323,2.3329,2.3353,2.3366,2.337,2.3365,2.3385,2.3399,2.3398,2.3397,2.3363,2.3359,2.3356,0,0,0,0,0,2.3167,2.3163,2.3176,2.3183,2.3222,2.3242,2.3247,2.3275,2.3286,2.3286,2.3309,2.3328,2.3362,2.3367,2.3372,2.3367,2.3399,2.3398,2.3397,2.3364,2.336,2.3356,0,0,0,0,0,0,2.3125,2.3169,2.3184,2.3191,2.3213,2.3249,2.325,2.3269,2.3287,2.3289,2.3322,2.3329,2.3337,2.3353,2.3357,2.3368,2.3383,2.3383,2.3357,2.3353,2.335,2.3346,2.3386,0,0,0,0,0,2.3116,2.313,2.3167,2.317,2.318,2.3213,2.3223,2.3243,2.3266,2.3275,2.3298,2.3319,2.3335,2.3345,2.3361,2.3365,2.3374,2.3365,2.3361,2.3358,2.3358,2.3363,2.336,2.3392,2.3392,2.3392,0,0,2.3099,2.3125,2.3131,2.3162,2.3181,2.3194,2.322,2.3232,2.3243,2.3276,2.3289,2.3307,2.3333,2.3341,2.3346,2.3355,2.3351,2.3356,2.3354,2.3355,2.3361,2.3358,2.3356,2.3391,2.3391,2.3392,0,0,2.3074,2.3094,2.31,2.3119,2.3149,2.3171,2.3172,2.3206,2.322,2.3233,2.326,2.3272,2.3298,2.3316,2.3328,2.3312,2.3331,2.3316,2.3298,2.3303,2.3301,2.3299,2.3294,2.3292,2.3316,2.3316,2.3315,0,2.3049,2.307,2.3101,2.3112,2.3126,2.3158,2.3165,2.3181,2.3214,2.3222,2.3232,2.3267,2.3286,2.33,2.3297,2.3305,2.3308,2.3313,2.3299,2.3297,2.3295,2.3292,2.329,2.3314,2.3314,2.3314,2.3314,0,2.3038,2.3053,2.3054,2.3087,2.31,2.3109,2.3141,2.3151,2.3169,2.319,2.3205,2.3229,2.3252,2.3257,2.3274,2.3273,2.3278,2.3292,2.3309,2.329,2.3287,2.3286,2.3311,2.3312,2.3312,2.3313,0,0,2.2988,2.3039,2.3039,2.3055,2.309,2.3102,2.3112,2.3136,2.3144,2.3165,2.3176,2.3198,2.3212,2.3226,2.3246,2.325,2.3238,2.3264,2.3266,2.326,2.3241,2.3231,2.3229,2.3251,2.325,2.325,2.3239,0,2.2971,2.2993,2.3021,2.3033,2.3048,2.308,2.3089,2.3111,2.3131,2.3146,2.3168,2.3184,2.3201,2.321,2.3215,2.3238,2.3235,2.3239,2.3261,2.3261,2.3255,2.3227,2.3216,2.3205,2.3238,2.3238,2.3238,0,2.2953,2.2975,2.2989,2.3025,2.3032,2.304,2.3065,2.3078,2.3105,2.3119,2.3136,2.3158,2.3171,2.3185,2.3204,2.3206,2.3217,2.3229,2.323,2.3234,2.3249,2.3232,2.3201,2.32,2.3236,2.3236,2.3236,0,2.2917,2.295,2.2963,2.2975,2.3017,2.3022,2.3039,2.3066,2.3079,2.3101,2.311,2.3132,2.3144,2.316,2.3188,2.3195,2.3204,2.322,2.3217,2.3216,2.3218,2.3218,2.319,2.3222,2.3222,2.3222,2.3222,0,2.2895,2.2903,2.2948,2.2956,2.2966,2.2999,2.3008,2.3028,2.3052,2.3065,2.3092,2.3103,2.3138,2.3154,2.3175,2.3188,2.3193,2.3205,2.3211,2.3204,2.3202,2.3212,2.3214,2.3222,2.3222,2.3222,2.3222,0,2.2858,2.2888,2.2905,2.2943,2.2953,2.2959,2.2992,2.3001,2.3023,2.3039,2.3045,2.3079,2.3099,2.3128,2.3155,2.317,2.318,2.3189,2.3172,2.3176,2.3172,2.3172,2.315,2.315,2.318,2.318,2.318,0,2.2843,2.285,2.289,2.2901,2.2918,2.2935,2.2949,2.2981,2.2995,2.3026,2.3032,2.3054,2.3074,2.3103,2.3131,2.3152,2.3163,2.3153,2.3166,2.3159,2.3164,2.3164,2.3166,2.3151,2.315,2.315,2.3149,0,2.2813,2.2828,2.2848,2.2873,2.2889,2.291,2.2933,2.294,2.2977,2.299,2.3012,2.3027,2.3057,2.3079,2.3105,2.3122,2.3142,2.3145,2.3146,2.3139,2.313,2.3137,2.3166,2.3146,2.3146,2.3146,2.3147,2.3147,2.2787,2.2796,2.2826,2.2848,2.2868,2.2889,2.29,2.2924,2.2943,2.2971,2.2988,2.3009,2.3036,2.3073,2.309,2.3106,2.3115,2.3115,2.3115,2.3115,2.3114,2.3126,2.3111,2.3111,2.3111,2.3111,2.3111,0,2.2761,2.2782,2.2801,2.2833,2.285,2.2868,2.2894,2.2907,2.2926,2.295,2.2969,2.2994,2.3016,2.3045,2.3069,2.3077,2.3087,2.3082,2.3083,2.3087,2.3104,2.3102,2.3074,2.3074,2.3074,2.3074,2.3074,2.3074,2.2749,2.2766,2.2784,2.2811,2.2832,2.2854,2.2867,2.2887,2.2907,2.2934,2.2953,2.2972,2.2999,2.3025,2.3046,2.3054,2.3062,2.3055,2.3066,2.3082,2.3085,2.3088,2.3087,2.3056,2.3056,2.3047,2.3047,2.3047]}]]